Simultaneous Nadir Overpasses (SNOs) Predictions

Prediction of SNOs between AQUA and NOAA-19 Satellite Orbit:

Table of predicted SNOs for the next 14.0 days since TLE Epoch: 8/21/2020
Index Date (AQUA) Time (AQUA) Lat,Lon (AQUA) SZA (AQUA ) Date (NOAA-19) Time (NOAA-19) Lat,Lon (NOAA-19) SZA (NOAA-19 ) Distance(km) Time Diff (sec)
1 08/21/2020 21:19:09 -79.61, 12.70 110.88 08/21/2020 21:20:16 -79.62, 12.81 110.90 2.89 67
2 08/24/2020 02:03:26 -79.58, -58.20 110.19 08/24/2020 02:02:33 -79.58, -58.17 110.17 0.77 53
3 08/24/2020 02:52:54 79.61, 109.25 69.87 08/24/2020 02:53:35 79.59, 109.20 69.84 2.44 41
4 08/26/2020 07:37:05 79.36, 39.89 70.25 08/26/2020 07:36:02 79.26, 35.55 70.59 90.17 63
5 08/26/2020 08:26:37 -79.59,-154.07 109.40 08/26/2020 08:26:48 -79.60,-153.93 109.42 2.85 11
6 08/28/2020 14:00:21 79.57, -57.33 71.33 08/28/2020 14:00:07 79.59, -57.29 71.35 2.07 14
7 08/28/2020 14:49:49 -79.64, 109.78 108.55 08/28/2020 14:51:00 -79.70, 111.19 108.64 28.89 71
8 08/30/2020 19:34:04 -79.55, 39.37 107.92 08/30/2020 19:33:20 -79.57, 39.32 107.88 2.44 44
9 08/30/2020 20:23:32 79.59,-153.26 72.15 08/30/2020 20:24:23 79.59,-153.23 72.14 0.56 51
10 09/02/2020 01:07:48 79.54, 136.03 72.86 09/02/2020 01:06:40 79.55, 135.87 72.91 3.45 68
11 09/02/2020 01:57:15 -79.57, -56.54 107.09 09/02/2020 01:57:35 -79.59, -56.45 107.09 3.11 20
12 09/04/2020 07:30:59 79.56, 40.06 73.71 09/04/2020 07:30:55 79.57, 40.18 73.71 2.83 4
